ORBCOMM-X 1 21576U 91050C 26104.43939975 .00000163 00000+0 60774-4 0 9995 2 21576 98.3003 169.3033 0003613 16.6887 343.4422 14.43543907825579 ORBCOMM FM01 1 23545U 95017A 26104.19696675 .00003537 00000+0 32886-3 0 9990 2 23545 69.9622 40.6909 0006738 239.1077 120.9418 14.95239569657428 ORBCOMM FM02 1 23546U 95017B 26104.11412677 .00005344 00000+0 46575-3 0 9999 2 23546 69.9620 58.6185 0008109 238.4884 121.5483 14.97431025657101 ORBCOMM FM08 1 25112U 97084A 26104.38725381 .00000720 00000+0 23529-3 0 9991 2 25112 45.0152 0.5197 0007015 343.2704 16.7915 14.47101327484980 ORBCOMM FM10 1 25113U 97084B 26104.00479680 .00000712 00000+0 23438-3 0 9999 2 25113 45.0167 5.3383 0005228 310.9556 49.0843 14.46821710660065 ORBCOMM FM11 1 25114U 97084C 26104.40814895 .00000668 00000+0 22365-3 0 9993 2 25114 45.0151 4.5953 0006029 312.8759 47.1586 14.46556684485073 ORBCOMM FM12 1 25115U 97084D 26104.43495605 .00000703 00000+0 23314-3 0 9996 2 25115 45.0156 4.1798 0005042 312.6185 47.4241 14.46587120484874 ORBCOMM FM09 1 25116U 97084E 26104.01517999 .00000738 00000+0 24354-3 0 9995 2 25116 45.0162 7.4916 0006172 296.7862 63.2358 14.46404287485013 ORBCOMM FM05 1 25117U 97084F 26104.39892731 .00000765 00000+0 24685-3 0 9994 2 25117 45.0162 0.4019 0002730 323.7741 36.2926 14.47214162484229 ORBCOMM FM06 1 25118U 97084G 26104.45949935 .00000876 00000+0 27592-3 0 9994 2 25118 45.0154 359.4611 0001679 336.0269 193.4185 14.47402219485157 ORBCOMM FM07 1 25119U 97084H 26104.43876277 .00000788 00000+0 25224-3 0 9993 2 25119 45.0150 0.2991 0003404 315.6127 44.4452 14.47403691485146 ORBCOMM FM03 1 25158U 98007B 26104.42734534 .00000646 00000+0 26826-3 0 9992 2 25158 107.9616 34.7982 0042881 80.1075 280.4902 14.35388125467259 ORBCOMM FM04 1 25159U 98007C 26104.29149675 .00000589 00000+0 24786-3 0 9993 2 25159 107.9608 37.9388 0038787 77.2906 283.2566 14.35610823467425 ORBCOMM FM17 1 25413U 98046A 26104.47706645 .00000418 00000+0 19167-3 0 9993 2 25413 44.9945 274.8619 0002292 263.2092 96.8494 14.35814064446468 ORBCOMM FM18 1 25414U 98046B 26104.51033073 .00000500 00000+0 20421-3 0 9994 2 25414 44.9919 183.7580 0003815 330.7405 29.3230 14.39538903447655 ORBCOMM FM19 1 25415U 98046C 26104.49808809 .00000606 00000+0 23871-3 0 9998 2 25415 44.9930 186.2673 0003030 312.7004 61.4813 14.39370031447609 ORBCOMM FM20 1 25416U 98046D 26104.51486132 .00000387 00000+0 17349-3 0 9992 2 25416 44.9932 193.4156 0001523 249.6515 110.4170 14.37971810447621 ORBCOMM FM16 1 25417U 98046E 26104.54342041 .00000439 00000+0 18322-3 0 9996 2 25417 44.9925 180.5919 0003099 346.8279 13.2488 14.39934312447670 ORBCOMM FM15 1 25418U 98046F 26104.52741531 .00000525 00000+0 21206-3 0 9993 2 25418 44.9961 186.7459 0002711 345.3180 14.7590 14.39556923447659 ORBCOMM FM14 1 25419U 98046G 26104.53006683 .00000514 00000+0 20663-3 0 9991 2 25419 44.9947 184.0048 0002104 319.5568 40.5124 14.39999951447638 ORBCOMM FM13 1 25420U 98046H 26104.51101419 .00000455 00000+0 19360-3 0 9990 2 25420 44.9965 195.2510 0004211 328.8524 31.2074 14.38530759446618 ORBCOMM FM21 1 25475U 98053A 26104.52846630 .00000423 00000+0 18485-3 0 9992 2 25475 45.0082 281.6254 0000869 269.0977 90.9772 14.38087219440617 ORBCOMM FM22 1 25476U 98053B 26104.18686255 .00000551 00000+0 22110-3 0 9992 2 25476 45.0075 275.4288 0002525 283.7945 76.2623 14.39335619440621 ORBCOMM FM23 1 25477U 98053C 26104.55119823 .00000491 00000+0 20607-3 0 9998 2 25477 45.0081 283.1149 0001819 278.2570 81.8072 14.38359481440777 ORBCOMM FM24 1 25478U 98053D 26104.50037485 .00000504 00000+0 20762-3 0 9994 2 25478 45.0080 279.4143 0001501 282.7938 77.2743 14.39014913440835 ORBCOMM FM25 1 25479U 98053E 26104.54781282 .00000576 00000+0 23068-3 0 9991 2 25479 45.0069 277.5115 0003579 311.9065 48.1479 14.38975304441130 ORBCOMM FM26 1 25480U 98053F 26104.42349508 .00000428 00000+0 18726-3 0 9992 2 25480 45.0068 276.8875 0005335 332.2146 27.8417 14.37891838440991 ORBCOMM FM27 1 25481U 98053G 26104.52797771 .00000534 00000+0 21708-3 0 9995 2 25481 45.0054 277.6841 0000415 203.4176 156.6654 14.39020478441064 ORBCOMM FM28 1 25482U 98053H 26104.32817288 .00000533 00000+0 21632-3 0 9995 2 25482 45.0049 215.8110 0002894 357.0898 2.9933 14.39108715441729 ORBCOMM FM30 1 25980U 99065A 26104.03200863 .00000434 00000+0 18883-3 0 9999 2 25980 45.0304 104.8686 0004427 63.0742 297.0558 14.38054416377744 ORBCOMM FM31 1 25981U 99065B 26104.02009363 .00000430 00000+0 18771-3 0 9993 2 25981 45.0218 98.3623 0001608 97.6594 262.4438 14.37972867377294 ORBCOMM FM32 1 25982U 99065C 26104.05580622 .00000415 00000+0 18622-3 0 9997 2 25982 45.0142 116.7738 0003658 97.4131 262.7133 14.37035358377868 ORBCOMM FM33 1 25983U 99065D 26104.17175292 .00000471 00000+0 19001-3 0 9998 2 25983 45.0300 7.0042 0007330 133.0253 227.1211 14.40868921379462 ORBCOMM FM36 1 25984U 99065E 26104.03505702 .00000630 00000+0 24762-3 0 9994 2 25984 45.0380 104.1052 0003878 335.4213 24.6451 14.39076281377741 ORBCOMM FM35 1 25985U 99065F 26104.30934340 .00000503 00000+0 21176-3 0 9994 2 25985 45.0382 110.3327 0001292 106.2299 253.8692 14.37959352378116 ORBCOMM FM34 1 25986U 99065G 26104.42151074 .00000392 00000+0 17572-3 0 9994 2 25986 45.0377 110.3373 0002777 17.0312 343.0629 14.37855398378247 ORBCOMM FM38 1 33060U 08031A 26104.03470743 .00000830 00000+0 12798-3 0 9995 2 33060 48.4409 319.8225 0004993 257.9383 102.0974 14.82887290959370 ORBCOMM FM41 1 33061U 08031B 26104.36167199 .00000788 00000+0 12413-3 0 9996 2 33061 48.4447 327.1369 0004209 243.8623 286.2084 14.82414623958894 ORBCOMM FM29 1 33062U 08031C 26104.38528088 .00000803 00000+0 12554-3 0 9991 2 33062 48.4401 334.3849 0005806 243.6527 286.8770 14.82594327958813 ORBCOMM FM39 1 33063U 08031D 26104.42732713 .00000686 00000+0 11529-3 0 9999 2 33063 48.4418 1.9675 0006561 214.0444 146.0051 14.80955392958422 ORBCOMM FM37 1 33064U 08031E 26104.11542877 .00000732 00000+0 12056-3 0 9994 2 33064 48.4411 351.5118 0005266 232.6386 280.7248 14.81145692958636 ORBCOMM FM40 1 33065U 08031F 26104.34033434 .00000987 00000+0 14399-3 0 9998 2 33065 48.4427 328.9807 0006323 249.5051 281.2615 14.83835986958850 VESSELSAT 1 1 37840U 11058C 26104.20717413 .00000324 00000+0 32017-4 0 9990 2 37840 19.9620 72.2988 0013468 257.7223 102.1673 14.11427969748886 ORBCOMM FM109 1 40086U 14040A 26104.19787029 .00000255 00000+0 90424-4 0 9997 2 40086 47.0045 34.0055 0002334 290.3722 69.6913 14.58776672625004 ORBCOMM FM107 1 40087U 14040B 26104.48436159 .00000211 00000+0 80920-4 0 9997 2 40087 47.0061 33.4840 0001384 250.7366 109.3370 14.58863891625128 ORBCOMM FM106 1 40088U 14040C 26104.55124556 .00000325 00000+0 84377-4 0 9997 2 40088 47.0597 190.7670 0015812 25.2621 334.9040 14.70388319627810 ORBCOMM FM111 1 40089U 14040D 26104.41388918 .00001263 00000+0 15716-3 0 9999 2 40089 47.0030 359.4247 0028684 198.3670 161.6194 14.88549041635076 ORBCOMM FM104 1 40090U 14040E 26104.25899756 .00000209 00000+0 83231-4 0 9997 2 40090 47.0050 71.8254 0015360 143.2542 216.9399 14.57215313624524 ORBCOMM FM103 1 40091U 14040F 26104.20053331 .00000254 00000+0 90168-4 0 9991 2 40091 47.0065 35.5741 0001957 241.4275 118.6414 14.58767445608044 ORBCOMM FM114 1 41179U 15081A 26104.55802505 .00000223 00000+0 83615-4 0 9993 2 41179 47.0052 302.8188 0002692 266.7536 93.3042 14.58786819548461 ORBCOMM FM119 1 41180U 15081B 26104.55872802 .00000205 00000+0 79833-4 0 9999 2 41180 46.9998 212.1755 0001263 303.8533 56.2232 14.58728422549710 ORBCOMM FM105 1 41181U 15081C 26104.40770716 .00000068 00000+0 63571-4 0 9994 2 41181 47.0013 247.4150 0002359 235.4520 124.6138 14.45522941544325 ORBCOMM FM110 1 41182U 15081D 26104.54698397 .00000287 00000+0 97111-4 0 9994 2 41182 47.0025 302.3314 0002766 148.4895 211.6156 14.58805960548333 ORBCOMM FM118 1 41183U 15081E 26104.23920821 .00000317 00000+0 10347-3 0 9990 2 41183 47.0047 304.1096 0002603 103.0993 257.0183 14.58803108548393 ORBCOMM FM112 1 41184U 15081F 26104.31059920 .00000328 00000+0 10580-3 0 9994 2 41184 46.9987 212.2547 0002729 262.0862 97.9714 14.58800330549627 ORBCOMM FM113 1 41185U 15081G 26104.35644735 .00000216 00000+0 82126-4 0 9995 2 41185 47.0002 212.4124 0002309 267.6494 92.4127 14.58789447549619 ORBCOMM FM115 1 41186U 15081H 26104.52906550 .00000313 00000+0 94327-4 0 9995 2 41186 46.9993 45.6088 0001290 335.3087 24.7738 14.63186836551899 ORBCOMM FM108 1 41187U 15081J 26104.31905613 .00000229 00000+0 84731-4 0 9996 2 41187 47.0036 124.1417 0003703 267.3210 92.7252 14.58804802550756 ORBCOMM FM117 1 41188U 15081K 26104.42145731 .00000215 00000+0 81965-4 0 9997 2 41188 46.9998 122.3112 0004130 272.3145 87.7267 14.58800012550818 ORBCOMM FM116 1 41189U 15081L 26104.33386841 .00000364 00000+0 11332-3 0 9992 2 41189 47.0019 212.5146 0001454 164.3343 195.7588 14.58797141549610